CW0172 Weather Reports


time (UTC)temp
C
wind
direction
speed
KPH
gust
KPH
rain 1hr
cm
rain 24hr
cm
rain mn
cm
humidity
%
barometer
mb
20260510193026 19 180 3.2 17.7 0.00 0.00 0.00 61 1022.0
20260510191531 20 157 3.2 9.7 0.00 0.00 0.00 60 1022.2
20260510190041 20 222 1.6 8.0 0.00 0.00 0.00 60 1022.0
20260510184525 20 70 1.6 11.3 0.00 0.00 0.00 58 1022.0
20260510183023 21 212 3.2 12.9 0.00 0.00 0.00 61 1022.1
20260510181522 20 71 1.6 12.9 0.00 0.00 0.00 66 1022.2
20260510180020 20 249 1.6 12.9 0.00 0.00 0.00 62 1022.1
20260510174519 20 288 3.2 14.5 0.00 0.00 0.00 61 1022.1
20260510173024 20 296 3.2 11.3 0.00 0.00 0.00 62 1021.9
20260510171520 20 184 3.2 12.9 0.00 0.00 0.00 62 1021.8
20260510170016 20 227 3.2 12.9 0.00 0.00 0.00 62 1021.9
20260510164518 20 355 3.2 12.9 0.00 0.00 0.00 63 1021.9
20260510163015 20 284 4.8 14.5 0.00 0.00 0.00 64 1021.9
20260510161512 20 236 3.2 8.0 0.00 0.00 0.00 65 1021.9
20260510160008 20 199 3.2 16.1 0.00 0.00 0.00 68 1021.9
20260510154506 19 190 3.2 12.9 0.00 0.00 0.00 67 1022.0
20260510153004 18 269 3.2 11.3 0.00 0.00 0.00 71 1021.8
20260510151501 18 263 3.2 11.3 0.00 0.00 0.00 71 1022.0
20260510144603 17 130 0.0 6.4 0.00 0.00 0.00 79 1021.9
20260510143102 16 246 1.6 6.4 0.00 0.00 0.00 79 1022.1
20260510141551 16 55 1.6 4.8 0.00 0.00 0.00 83 1021.8
20260510140040 15 138 1.6 8.0 0.00 0.00 0.00 86 1021.9
20260510134539 14 174 0.0 4.8 0.00 0.03 0.00 91 1021.8
20260510133032 13 145 1.6 8.0 0.00 0.03 0.00 94 1021.8
20260510131529 12 219 1.6 4.8 0.00 0.03 0.00 97 1021.9
20260510130023 11 272 0.0 3.2 0.00 0.03 0.00 97 1021.9
20260510124530 11 345 0.0 4.8 0.00 0.03 0.00 97 1021.7
20260510123018 11 28 0.0 3.2 0.00 0.03 0.00 96 1021.4
20260510121517 10 355 0.0 3.2 0.00 0.03 0.00 97 1021.4
20260510120012 10 291 0.0 3.2 0.00 0.03 0.00 96 1021.2
20260510114510 10 5 0.0 3.2 0.00 0.03 0.00 97 1021.0
20260510113010 10 134 0.0 0.0 0.00 0.03 0.00 97 1020.8
20260510111506 9 61 0.0 0.0 0.00 0.03 0.00 97 1021.0
20260510110002 9 127 0.0 3.2 0.00 0.03 0.00 97 1021.0
20260510104601 8 127 0.0 3.2 0.00 0.03 0.00 96 1020.7
20260510103057 8 127 0.0 3.2 0.00 0.03 0.00 96 1020.4
20260510101555 8 127 0.0 3.2 0.00 0.03 0.00 96 1020.3
20260510100109 8 127 0.0 3.2 0.00 0.03 0.00 96 1020.4
20260510094600 8 140 0.0 3.2 0.00 0.03 0.00 96 1020.3
20260510093057 8 136 0.0 3.2 0.00 0.03 0.00 96 1020.5
20260510091549 8 135 0.0 0.0 0.00 0.03 0.00 96 1020.5
20260510090056 8 134 0.0 1.6 0.00 0.03 0.00 96 1020.6
20260510084608 8 135 0.0 3.2 0.00 0.03 0.00 96 1020.8
20260510083049 8 155 0.0 3.2 0.00 0.03 0.00 96 1020.9
20260510081553 8 279 0.0 3.2 0.00 0.03 0.00 96 1021.1
20260510080044 8 334 0.0 4.8 0.00 0.03 0.00 96 1020.9
20260510074543 8 340 0.0 4.8 0.00 0.03 0.00 96 1020.6
20260510073044 8 274 0.0 3.2 0.00 0.03 0.00 96 1020.0
20260510071544 8 238 0.0 3.2 0.00 0.03 0.00 96 1020.0
20260510070045 8 9 0.0 3.2 0.00 0.03 0.00 96 1020.1
20260510064537 8 9 0.0 3.2 0.00 0.03 0.00 96 1020.1
20260510063035 8 99 0.0 3.2 0.00 0.03 0.00 96 1020.3
20260510061531 8 99 0.0 3.2 0.00 0.03 0.00 96 1020.4
20260510060029 7 137 0.0 3.2 0.00 0.03 0.00 95 1020.1
20260510054530 7 137 0.0 1.6 0.00 0.03 0.00 95 1020.0
20260510053028 7 137 0.0 1.6 0.00 0.03 0.00 95 1020.0
20260510051528 7 137 0.0 1.6 0.00 0.03 0.00 94 1020.1
20260510050023 8 137 0.0 0.0 0.00 0.03 0.00 94 1020.1
20260510044529 8 137 0.0 1.6 0.00 0.03 0.00 94 1020.1
20260510043020 8 137 0.0 3.2 0.00 0.03 0.00 94 1020.3
20260510041518 8 146 0.0 3.2 0.00 0.03 0.00 95 1020.4
20260510040016 9 254 0.0 1.6 0.00 0.03 0.00 95 1020.3
20260510034515 9 112 0.0 0.0 0.00 0.03 0.03 95 1020.2
20260510033014 9 112 0.0 3.2 0.00 0.03 0.03 95 1020.0
20260510031513 9 112 0.0 0.0 0.00 0.03 0.03 95 1020.0
20260510030012 9 112 0.0 0.0 0.00 0.03 0.03 94 1019.8
20260510024511 9 112 0.0 0.0 0.00 0.03 0.03 94 1019.9
20260510023011 9 112 0.0 3.2 0.00 0.03 0.03 95 1019.8
20260510021510 9 157 0.0 0.0 0.00 0.03 0.03 94 1020.0
20260510020010 9 157 0.0 3.2 0.00 0.03 0.03 94 1020.0
20260510014509 8 157 0.0 0.0 0.00 0.03 0.03 93 1019.9
20260510013008 9 157 0.0 3.2 0.00 0.03 0.03 93 1019.8
20260510011516 9 157 0.0 0.0 0.00 0.03 0.03 92 1019.8
20260510010006 10 157 0.0 3.2 0.00 0.03 0.03 92 1019.7
20260510004509 10 186 0.0 1.6 0.00 0.03 0.03 92 1019.3
20260510003006 10 137 0.0 3.2 0.00 0.03 0.03 93 1019.1
20260510001505 10 128 0.0 3.2 0.00 0.03 0.03 92 1019.1
20260510000008 11 153 0.0 4.8 0.00 0.03 0.03 92 1019.3
20260509234504 11 128 0.0 3.2 0.00 0.03 0.03 92 1019.1
20260509233004 11 207 0.0 4.8 0.00 0.03 0.03 91 1018.9
20260509231504 11 127 0.0 3.2 0.00 0.03 0.03 91 1018.9
20260509230002 11 131 0.0 6.4 0.00 0.03 0.03 89 1018.9
20260509224502 12 254 0.0 4.8 0.00 0.03 0.03 90 1018.9
20260509223001 12 153 0.0 4.8 0.00 0.03 0.03 90 1018.9
20260509221603 12 141 0.0 3.2 0.00 0.03 0.03 89 1019.1
20260509220101 12 138 0.0 3.2 0.00 0.03 0.03 89 1019.1
20260509214605 12 117 0.0 3.2 0.00 0.03 0.03 90 1019.2
20260509213058 11 210 0.0 3.2 0.00 0.03 0.03 92 1019.0
20260509211601 11 222 0.0 3.2 0.00 0.03 0.03 92 1019.1
20260509210107 11 223 0.0 3.2 0.00 0.03 0.03 92 1019.2
20260509204600 11 313 0.0 3.2 0.00 0.03 0.03 92 1019.2
20260509203058 11 46 0.0 3.2 0.00 0.03 0.03 92 1019.1
20260509201603 11 39 1.6 4.8 0.00 0.03 0.03 92 1019.2
20260509200106 11 328 0.0 4.8 0.00 0.03 0.03 92 1019.5
20260509194551 11 340 1.6 8.0 0.00 0.03 0.03 91 1019.9